Theta_e
319 324 325 327 328 327 324 324 327 325 325 326 327 329 329 329 326 324 326 323 323 330 331 333 335 332 333 333 329 328 328 329 328 327 327 327 328 329 330 330 330 329 328 328 328 328 328 328 328 327 326 326 326 326 325 324 324 324 324 323 323 325 326 325 325 325 324 323 323 322 321 322 322 322 323 322 322 321 320 320 319 319 319 318 318 316
319 321 324 326 325 325 324 322 323 323 324 325 326 327 327 328 327 324 326 324 322 331 332 331 333 329 329 330 327 327 329 328 328 328 328 328 328 329 329 330 330 330 329 329 329 328 327 327 328 327 327 326 326 326 326 325 325 325 324 322 323 324 325 324 325 324 324 323 323 322 321 321 321 320 321 321 322 321 321 321 320 320 319 318 319 318
321 321 322 319 317 321 322 321 322 322 323 325 324 326 327 326 327 324 324 324 324 331 332 328 328 325 325 327 325 325 328 328 327 328 328 328 329 329 329 330 329 330 330 329 328 328 327 326 326 326 326 326 326 326 326 326 325 325 323 321 322 323 323 324 323 324 324 323 323 321 320 319 318 318 318 319 322 322 321 322 322 321 320 319 319 319
319 321 319 314 316 322 321 320 323 322 321 323 323 326 327 324 327 326 323 324 325 329 330 327 328 326 324 327 325 323 326 328 328 329 329 328 329 330 329 330 330 329 330 330 329 328 327 327 325 324 325 325 325 325 325 325 324 323 322 320 321 321 322 322 322 322 322 321 321 321 320 319 318 318 318 321 324 324 324 324 323 321 319 319 319 320
320 318 312 313 320 324 322 322 324 324 321 321 322 326 326 323 326 326 324 327 328 327 325 328 333 329 325 328 327 324 324 327 329 329 330 329 329 330 329 329 330 330 330 330 330 329 328 327 326 325 325 324 324 324 324 324 323 322 322 322 322 322 323 322 322 322 321 321 321 320 319 319 319 320 321 323 325 325 325 324 324 322 320 320 321 321
319 314 311 317 321 321 323 323 324 325 324 322 322 324 323 324 325 325 326 331 334 330 323 328 335 331 327 329 327 326 327 327 327 327 329 331 330 330 330 329 330 330 330 330 330 330 330 328 328 327 327 326 325 324 324 324 323 323 323 324 324 324 324 324 324 323 323 323 323 323 322 320 320 319 321 323 324 324 324 324 324 323 323 323 324 325
316 311 312 317 318 319 321 322 321 323 325 323 322 323 322 323 324 325 328 332 336 333 323 324 333 332 331 329 325 328 331 329 326 324 325 329 330 330 331 330 330 330 330 331 330 331 331 330 329 329 328 328 327 326 326 325 326 326 326 325 325 325 325 325 325 325 325 326 326 326 326 324 321 319 317 319 321 322 323 323 323 324 324 324 325 326
315 313 314 316 317 317 319 320 319 321 325 323 320 322 322 323 324 325 329 330 330 329 325 325 331 333 331 328 325 327 332 332 329 325 324 327 329 329 330 330 330 331 330 331 331 330 331 331 330 330 330 329 329 328 328 328 329 329 328 327 326 326 325 325 326 326 327 327 327 326 325 324 323 321 319 317 317 318 319 321 322 323 324 325 325 325
314 317 315 317 319 317 317 320 319 321 323 319 318 321 321 322 323 324 325 327 327 328 329 329 330 334 330 327 327 329 334 334 331 328 324 325 328 329 329 330 330 331 330 330 331 331 331 331 331 331 331 330 330 329 329 329 330 329 329 328 327 327 326 327 327 327 326 326 326 326 325 325 325 325 324 322 321 320 319 319 321 322 323 326 326 327
313 315 314 318 320 317 315 315 316 322 322 317 318 321 321 321 323 326 326 329 333 332 330 327 328 334 332 330 331 332 333 332 329 328 324 324 329 329 328 329 330 330 331 331 331 331 331 331 331 330 330 330 330 330 330 330 330 330 329 329 328 328 328 328 328 327 326 326 326 326 326 325 325 325 325 326 325 325 323 321 321 322 324 326 327 327
315 315 314 316 317 314 314 312 313 319 320 318 320 321 321 324 327 333 334 333 336 332 328 325 326 333 334 331 331 331 329 328 328 329 325 325 328 328 328 329 330 330 330 330 330 330 331 331 331 331 330 330 330 330 330 330 330 330 330 329 329 328 326 327 327 325 324 324 324 324 324 324 324 324 324 325 325 325 324 324 323 324 325 326 327 328
318 318 315 315 314 314 315 315 313 317 318 320 324 321 322 327 329 334 336 335 334 329 328 325 325 332 333 330 329 329 328 326 326 327 326 326 327 328 330 330 330 330 329 330 330 329 330 330 330 330 330 329 330 330 330 330 329 330 329 329 329 328 327 327 326 325 325 325 325 324 324 325 325 324 324 324 324 324 324 324 325 326 325 325 327 328
321 321 317 314 316 316 317 318 316 318 320 320 324 323 323 327 328 329 329 330 332 330 328 326 326 330 331 329 329 329 330 327 324 325 325 326 327 328 330 330 330 330 329 329 329 329 329 329 330 329 329 328 328 327 327 327 326 326 326 325 325 324 324 324 324 324 324 324 325 326 326 326 325 326 326 326 326 326 325 325 325 326 326 326 326 327
322 321 321 318 317 316 317 320 319 320 321 320 322 324 324 325 327 327 325 325 330 331 326 324 328 330 329 330 329 329 329 326 325 325 326 326 327 328 329 329 329 328 328 328 328 328 327 327 327 326 325 324 323 323 322 322 321 321 321 320 320 320 319 320 320 320 320 321 322 323 323 324 324 324 325 325 326 327 327 326 326 326 327 327 327 327
322 321 323 318 317 318 318 319 320 320 320 320 321 322 322 326 328 328 331 332 331 332 330 328 328 328 329 328 327 327 327 326 326 325 326 327 327 328 327 327 328 327 327 327 326 326 326 326 325 322 321 321 321 321 320 319 319 319 320 319 319 319 319 319 319 318 318 319 319 319 320 321 321 322 323 324 325 325 326 326 327 327 327 327 327 327
322 321 324 318 315 318 317 316 316 319 321 318 319 321 321 325 330 327 328 332 331 333 333 330 327 327 328 327 325 327 326 325 326 325 326 327 326 327 328 328 328 327 326 325 324 325 325 324 323 322 322 322 322 321 320 319 319 319 319 319 319 319 319 319 318 318 318 317 317 317 317 317 318 320 320 321 323 323 324 325 326 326 326 326 326 326
321 322 326 323 316 318 318 317 317 318 321 319 319 322 320 318 327 328 324 326 330 334 330 325 329 331 330 331 329 329 330 328 326 326 326 327 326 327 328 328 328 327 326 326 325 325 324 323 323 323 323 323 322 322 321 320 319 319 319 318 318 318 318 318 317 317 317 316 316 315 314 314 314 315 316 317 319 320 321 322 323 324 325 325 326 326
325 325 325 324 319 318 316 316 319 316 319 323 320 321 319 317 324 330 331 330 332 334 329 326 332 334 333 334 331 330 331 331 329 327 325 325 324 324 325 325 326 326 326 326 325 325 324 323 323 323 324 323 322 322 322 321 319 318 318 318 317 317 317 316 315 315 314 313 313 313 312 311 310 310 311 312 314 316 317 318 319 321 322 324 325 325
325 325 324 324 321 319 319 322 324 317 316 321 320 318 321 323 325 328 332 333 332 333 331 329 330 331 333 335 332 330 331 332 330 328 324 323 322 322 322 322 323 323 324 324 325 325 324 323 323 324 324 324 323 322 322 322 319 318 317 316 316 316 315 315 314 314 313 312 312 312 311 310 310 309 309 309 309 311 313 315 315 316 318 320 322 324
326 326 323 325 323 320 324 328 326 322 318 318 320 321 326 329 328 327 329 332 334 334 331 329 329 332 335 335 332 331 331 332 331 329 325 322 321 321 320 321 321 322 322 323 324 324 324 324 324 324 324 324 324 323 323 322 319 317 317 317 316 316 315 315 314 314 314 313 313 312 312 311 311 310 309 309 308 308 310 311 311 312 313 315 317 319
328 330 324 327 330 324 323 323 322 325 324 324 327 327 328 326 323 325 325 326 333 336 333 332 332 335 336 333 331 332 331 330 329 327 324 322 321 321 320 320 320 321 321 321 322 322 322 322 322 323 324 324 325 324 323 321 320 318 317 317 317 316 316 315 316 316 316 314 314 313 312 312 311 311 310 310 309 308 308 308 309 309 310 310 312 313
325 333 331 331 333 327 325 323 319 321 326 332 334 327 326 326 323 327 326 322 329 333 332 334 337 337 334 329 330 330 328 327 326 324 323 322 322 321 320 320 320 320 320 320 320 320 320 319 319 320 320 321 322 323 324 323 321 319 318 318 318 317 315 315 316 319 318 316 314 313 312 311 311 311 311 310 309 308 307 307 307 308 309 310 311 311
323 339 337 327 327 325 323 322 316 315 322 330 330 326 326 328 333 340 333 326 328 328 326 331 337 337 331 326 327 327 325 325 325 324 323 322 321 320 320 320 319 319 319 318 319 318 318 318 317 317 318 317 318 322 324 323 321 319 317 317 318 316 315 314 315 317 318 316 314 313 312 311 311 310 310 310 309 308 308 307 307 308 310 311 311 312
327 338 334 328 334 336 331 329 320 318 325 328 327 326 325 325 334 340 334 332 332 329 329 334 337 337 331 325 325 325 324 325 324 323 322 322 321 319 319 319 318 318 318 317 318 317 318 318 317 317 317 317 318 320 322 321 319 317 316 316 315 315 314 314 313 314 315 317 316 314 313 312 311 310 310 309 308 308 307 307 307 307 309 310 311 312
324 330 332 332 334 333 333 339 334 328 329 330 329 327 323 323 329 330 328 334 335 329 330 335 337 335 329 325 325 324 324 325 323 323 323 321 320 319 318 319 318 318 317 317 318 317 317 317 317 317 317 316 317 318 319 319 317 315 314 314 313 313 312 312 312 312 314 317 317 315 313 312 311 311 310 310 309 308 308 307 307 306 307 308 310 311
328 334 340 339 333 328 330 337 338 332 329 328 328 328 325 324 329 329 328 335 334 325 326 335 336 331 327 327 328 325 323 325 324 323 323 321 320 318 318 318 317 317 317 317 317 317 316 316 316 316 316 315 316 316 316 316 314 313 312 312 311 311 310 310 310 311 313 314 314 312 311 310 310 309 309 308 308 307 306 306 307 307 306 307 308 310
335 335 338 340 335 331 336 337 331 329 329 328 327 328 329 328 329 330 331 333 331 326 327 332 332 329 328 329 329 328 326 326 323 322 322 321 319 318 318 317 317 317 317 316 316 316 315 315 315 314 314 314 314 314 314 313 313 312 311 311 310 310 310 310 309 310 309 310 309 309 308 308 308 307 307 306 306 305 305 305 306 307 307 307 308 310
347 336 330 333 330 327 332 331 327 330 332 329 328 328 329 331 329 329 333 331 328 327 330 331 328 329 329 328 328 328 327 325 322 322 322 320 319 318 317 317 317 316 316 316 315 315 315 315 314 314 314 313 313 313 312 311 311 310 310 309 309 309 309 308 308 308 308 307 307 306 306 306 306 306 306 305 305 304 303 304 306 307 307 307 307 310
347 335 324 328 329 325 328 327 327 334 332 329 333 332 331 333 331 330 331 327 326 330 332 331 328 328 328 327 327 326 324 323 322 321 320 318 318 318 316 316 316 316 316 315 315 314 314 313 313 313 312 312 311 311 310 310 309 309 308 308 308 308 308 307 307 307 307 307 306 305 305 305 305 305 305 304 304 303 303 303 304 306 307 306 308 311
334 331 323 328 331 327 328 327 327 334 334 332 331 329 331 334 332 330 329 325 326 328 328 327 327 327 326 325 324 323 322 323 322 319 318 317 317 317 316 315 315 314 314 314 313 313 313 312 312 311 311 310 310 309 309 308 307 306 306 306 306 306 306 306 306 306 306 305 305 304 303 303 303 302 302 303 302 303 303 302 303 306 306 306 309 311
328 326 323 334 337 327 326 328 327 332 338 335 328 324 328 332 329 327 327 327 328 326 324 325 328 327 324 322 321 322 322 322 319 317 316 316 317 316 315 315 314 313 313 313 312 312 312 312 312 311 310 309 309 309 308 307 306 305 304 304 304 305 305 305 305 305 305 304 304 303 302 301 300 300 299 300 300 301 302 302 303 305 306 306 307 310
334 327 324 338 341 327 324 327 327 329 333 332 328 327 329 332 332 329 327 327 329 328 325 327 329 328 324 320 319 320 320 318 316 315 315 316 316 316 315 314 313 313 313 312 312 312 311 311 311 310 309 309 308 308 307 307 306 305 303 302 303 304 304 304 304 304 304 304 303 301 300 299 298 298 297 297 298 299 301 302 303 304 306 306 306 308
336 330 327 335 336 327 323 328 332 334 333 330 330 330 329 330 330 327 326 326 326 326 327 330 330 326 321 319 319 318 316 315 315 314 316 316 315 316 315 314 313 313 313 312 312 311 310 309 309 308 308 308 308 307 307 306 305 304 303 303 304 304 304 304 303 303 303 302 300 299 298 297 297 297 296 296 297 299 300 301 301 303 305 306 306 307
329 329 329 334 336 327 324 329 332 332 332 330 326 324 325 327 329 329 330 328 324 324 326 328 326 322 318 318 319 317 314 314 314 315 315 316 316 315 314 313 313 312 311 311 310 309 308 308 308 307 307 307 306 306 306 305 304 303 303 303 304 304 303 303 302 302 301 299 298 297 297 297 296 296 296 296 297 298 299 300 301 302 304 305 306 306
330 331 329 331 333 328 327 330 329 329 332 329 323 319 319 323 327 329 327 325 324 325 326 327 325 321 318 317 316 315 315 314 314 314 314 315 315 315 314 312 311 311 309 308 307 306 306 306 306 306 306 306 305 305 304 303 303 303 303 303 302 302 302 301 301 300 299 297 297 297 296 296 296 296 296 297 297 298 299 301 302 302 303 304 305 306
331 333 328 326 325 325 328 327 325 327 327 324 322 320 319 322 327 330 328 325 323 324 325 326 323 317 315 316 315 314 314 313 312 312 313 314 314 313 313 311 310 309 308 306 305 305 304 304 304 305 305 305 304 304 303 302 303 303 302 301 301 301 300 300 299 298 297 297 296 296 296 296 296 296 296 296 297 298 299 301 302 302 302 303 304 305
326 332 330 325 321 326 332 329 326 328 326 325 328 324 322 326 327 330 334 329 321 319 322 322 319 315 314 314 314 313 312 311 311 310 311 312 312 311 310 309 308 308 307 306 306 305 303 302 303 304 304 303 302 301 302 302 303 303 301 299 299 299 299 298 298 297 296 296 296 296 296 296 296 296 296 296 296 297 298 300 302 302 302 303 303 303
319 325 330 328 321 325 334 333 331 332 331 334 335 325 322 324 321 322 331 332 321 318 320 319 316 314 312 313 312 312 311 313 313 310 309 309 309 309 309 309 308 308 307 307 306 305 303 302 303 304 303 301 300 301 302 303 303 302 299 297 297 298 298 297 297 296 296 296 296 296 296 296 296 296 296 296 296 297 297 299 300 300 301 301 301 302
320 323 332 333 324 325 335 337 334 334 333 335 335 324 319 321 320 320 329 333 324 318 320 318 314 313 313 313 312 311 313 316 315 311 308 309 309 309 309 309 308 308 307 307 306 304 303 302 303 303 301 299 300 302 303 303 302 300 297 296 297 298 297 297 297 296 296 296 296 296 296 296 296 296 296 296 296 296 297 297 298 298 298 299 299 300
325 329 335 335 329 327 333 334 330 329 330 329 328 323 318 320 323 324 331 334 326 319 320 319 314 314 314 313 311 312 315 318 316 312 309 310 309 309 309 308 308 307 307 306 305 303 303 303 304 302 299 299 301 302 302 302 300 298 297 297 298 298 297 297 296 296 296 296 296 296 296 296 296 296 296 296 296 297 297 297 297 297 297 297 298 298
325 328 329 331 331 329 332 333 328 329 331 327 323 321 318 319 324 328 332 332 323 318 320 319 316 315 315 313 313 313 315 317 316 313 311 310 309 308 308 307 306 306 306 305 303 303 303 304 303 300 299 300 302 302 301 299 298 297 298 298 298 298 297 297 296 296 296 296 296 296 296 296 296 296 296 296 296 297 297 297 297 297 298 298 298 298
324 321 320 323 326 327 333 336 329 326 326 322 319 319 318 321 329 329 327 323 319 320 321 318 316 316 316 315 315 314 314 316 316 313 311 309 309 308 307 306 306 306 306 304 303 303 303 303 303 300 299 300 301 300 299 298 298 298 298 298 298 297 296 296 296 296 296 296 296 296 296 296 296 296 296 296 296 296 297 297 297 297 298 298 298 299
324 321 322 323 323 326 331 331 328 327 324 320 319 320 319 326 331 326 319 318 319 321 321 318 317 317 316 315 315 314 315 315 314 312 311 309 309 308 307 306 307 306 305 303 303 303 303 303 302 299 298 299 299 299 298 298 298 298 298 298 297 296 296 296 296 296 296 296 296 297 297 298 297 297 297 297 296 296 297 297 297 297 298 298 298 298
323 323 326 324 324 332 335 333 331 330 323 320 322 322 321 323 324 319 318 319 319 320 320 318 317 316 316 316 314 314 315 314 313 312 310 309 308 307 307 307 306 305 304 302 302 303 302 302 301 299 298 298 299 298 298 298 298 298 298 297 296 296 296 296 296 296 296 296 297 298 298 298 298 298 298 297 297 297 297 297 297 297 297 298 298 298
323 321 324 326 328 331 333 333 328 322 318 319 321 321 320 320 319 319 319 319 319 320 321 319 317 316 316 316 315 314 314 314 312 311 310 309 308 307 308 307 305 304 303 302 302 302 302 302 300 298 298 298 298 298 298 298 298 298 297 296 295 295 296 296 296 296 296 297 297 298 298 299 299 299 298 298 298 298 297 297 297 297 297 297 298 298
319 314 320 328 325 321 321 322 319 317 319 320 320 320 320 319 319 320 319 318 319 321 321 321 320 318 316 315 315 315 314 314 313 311 310 309 308 308 307 306 304 303 302 302 302 302 302 301 300 298 298 298 298 298 298 298 298 297 296 295 295 296 296 296 296 297 296 297 297 298 298 299 299 299 299 298 298 297 297 297 297 297 297 297 297 297
317 316 326 330 323 321 323 319 315 317 320 319 319 320 320 319 320 320 319 319 319 321 321 321 321 319 317 316 315 315 314 313 312 310 309 309 309 307 306 304 303 303 303 302 302 302 302 301 299 298 298 298 298 298 298 298 297 295 295 295 295 296 296 296 296 297 297 297 297 297 298 299 299 299 299 297 297 297 297 297 296 296 297 297 296 296
319 319 327 328 322 322 324 317 313 316 319 318 319 321 319 319 321 320 319 319 319 320 321 320 320 319 317 315 315 315 314 312 312 311 310 308 308 306 304 303 303 302 302 302 302 302 301 300 299 299 299 298 299 299 298 296 295 295 295 295 295 296 296 296 296 297 297 297 297 297 298 298 298 299 299 297 296 295 296 296 296 296 296 297 297 297
319 318 320 323 323 322 320 316 314 318 320 319 319 320 319 320 320 319 319 319 319 320 320 318 318 318 317 315 315 315 313 312 311 311 310 308 306 304 303 302 302 302 302 302 302 301 300 299 299 299 299 299 299 298 296 295 295 295 295 295 295 295 295 295 296 296 296 297 297 297 297 297 297 298 298 297 296 295 295 295 296 296 296 297 297 297
319 320 317 320 329 331 327 321 319 322 325 322 320 320 320 319 319 319 319 318 318 319 319 317 316 316 316 316 315 315 314 312 310 310 309 307 305 304 302 302 302 302 302 302 301 301 299 298 299 299 299 299 299 297 296 295 295 295 295 295 295 295 295 295 295 295 295 296 296 297 297 297 297 296 296 297 297 296 296 296 296 296 297 298 298 298
320 320 318 323 330 330 325 320 319 321 322 321 320 321 320 319 319 319 318 318 318 318 318 318 317 315 314 314 314 313 313 312 310 309 307 305 304 303 302 302 302 302 302 302 301 300 298 298 299 300 299 299 298 297 296 295 295 295 295 295 295 294 294 294 294 294 294 295 296 296 297 296 296 296 295 296 296 296 296 296 296 296 297 297 298 299
Wind_Speed
3 3 2 4 6 7 6 5 6 6 8 9 6 5 6 6 3 1 2 3 4 5 4 4 5 6 6 5 8 10 11 13 14 12 13 11 10 10 9 8 8 7 7 7 7 6 5 5 4 3 3 4 4 4 4 4 5 5 6 6 5 3 3 3 4 5 6 6 7 9 10 13 14 14 15 17 16 14 14 15 16 16 16 17 17 17
4 2 5 6 7 7 6 7 9 9 9 8 7 7 5 5 2 1 3 2 3 5 3 4 7 7 6 4 8 11 10 11 12 12 14 14 13 12 10 9 7 7 7 7 7 7 6 6 5 3 3 3 4 3 2 2 3 4 5 5 4 3 3 5 6 8 9 9 10 10 11 12 13 14 14 15 14 13 13 14 15 16 16 17 17 17
4 2 9 6 9 7 5 7 11 10 8 8 5 6 5 4 3 3 3 4 5 5 1 4 8 7 6 4 8 12 8 7 10 10 12 14 14 15 13 12 9 7 7 7 7 8 7 7 6 4 3 3 3 3 2 2 3 3 5 5 4 4 5 7 8 10 10 11 12 12 12 12 13 14 13 13 13 13 13 14 14 15 16 16 17 17
1 6 8 8 12 10 6 5 11 9 5 6 5 6 5 4 4 2 2 4 5 3 3 4 6 5 6 5 7 12 11 9 11 10 11 13 13 14 14 13 12 10 9 8 8 8 8 7 6 6 4 3 3 3 3 2 3 4 5 6 6 6 8 9 10 11 12 12 13 13 14 14 14 14 13 12 12 13 13 13 14 14 15 15 15 16
5 7 0 10 10 9 8 5 9 8 4 3 3 6 7 5 5 4 3 2 5 3 3 5 5 5 6 7 6 9 12 13 14 13 13 13 13 13 13 13 14 13 12 10 9 8 8 8 8 7 6 4 4 3 3 4 4 6 7 8 8 9 10 11 12 13 14 14 14 15 15 15 15 14 13 13 13 13 14 15 15 15 15 15 15 16
5 6 3 9 6 8 9 5 6 8 6 2 3 5 9 9 8 8 6 5 5 3 2 4 5 3 6 7 6 7 8 10 14 16 16 15 14 14 14 14 14 14 14 13 12 10 9 9 8 8 7 6 5 5 5 6 7 8 8 9 9 10 11 13 14 15 15 16 16 17 17 17 17 17 16 16 16 17 17 17 17 16 16 16 16 17
2 2 3 7 7 7 7 3 4 5 8 3 4 6 9 10 11 10 7 5 3 2 2 3 6 0 5 6 7 6 6 8 12 16 18 18 16 14 14 14 14 15 15 15 14 13 11 10 9 8 8 8 7 7 7 8 9 9 9 10 10 11 13 14 15 16 16 16 17 18 19 19 19 19 19 19 19 20 20 20 19 18 17 17 17 17
1 5 6 6 7 7 5 2 4 5 8 3 3 9 11 11 10 8 7 5 2 3 2 5 5 3 3 4 6 5 6 8 10 12 17 21 19 15 14 13 13 14 15 15 15 14 12 11 10 9 8 9 8 8 9 9 11 11 12 11 12 12 13 15 15 15 16 17 18 19 20 20 20 20 21 20 21 21 21 21 21 20 20 19 18 18
1 3 4 6 7 4 3 5 8 9 6 2 4 10 9 10 8 6 7 4 1 2 3 6 4 4 2 5 5 5 6 7 9 8 12 19 19 16 15 13 12 13 13 14 15 14 13 11 10 10 9 9 9 9 10 11 12 13 13 12 12 12 13 14 15 16 17 18 19 21 21 22 22 22 22 22 22 21 21 21 21 21 21 20 20 20
1 1 5 6 5 2 1 3 9 9 4 4 11 13 9 9 7 6 6 3 3 5 1 6 4 4 2 5 5 6 5 5 8 6 9 16 17 14 14 13 12 12 12 13 14 14 13 12 11 10 10 9 10 10 10 11 12 12 12 11 11 11 12 13 14 16 17 18 19 21 22 23 23 23 24 24 23 22 22 22 22 22 22 21 21 20
4 1 2 3 4 3 5 6 4 10 13 13 13 12 8 7 5 4 3 3 4 3 3 6 2 4 0 4 3 2 2 4 4 5 9 15 15 12 13 14 13 13 13 13 14 14 13 13 12 11 10 10 10 10 10 10 11 10 10 10 10 11 12 12 14 16 17 18 19 20 21 22 23 24 25 25 25 24 23 23 23 23 23 22 21 21
7 5 1 2 6 8 10 9 6 9 16 13 8 7 6 4 4 3 4 4 5 1 5 5 2 4 3 2 3 3 3 3 3 3 7 12 13 12 12 12 12 13 13 14 14 14 14 14 13 13 12 11 10 10 10 10 10 10 10 11 10 11 14 14 14 16 17 17 18 19 20 21 22 23 24 25 26 26 25 24 23 23 23 23 22 21
5 3 4 2 7 10 10 8 6 6 6 9 7 7 6 3 2 1 3 3 2 2 4 3 2 3 1 3 4 4 4 4 4 3 7 10 10 11 12 11 11 12 14 14 15 15 15 15 14 14 13 12 12 12 13 13 13 13 13 13 12 13 16 16 16 16 17 17 18 18 19 20 21 22 23 24 25 25 24 23 23 23 24 24 23 22
3 5 7 5 4 5 6 8 5 0 3 8 8 6 5 4 2 1 2 1 1 3 4 3 3 2 2 3 3 4 5 5 4 8 9 9 9 10 11 11 12 13 15 15 15 15 15 15 15 16 16 16 18 18 19 19 18 17 16 16 16 17 18 19 19 19 19 19 19 19 19 20 20 21 22 23 23 23 23 23 23 23 24 24 24 24
3 2 5 3 1 2 2 5 8 7 5 5 5 6 6 6 4 3 3 2 2 2 3 4 3 1 1 2 4 4 4 4 8 10 9 8 9 9 11 13 14 15 16 16 16 16 16 16 17 17 18 20 20 20 20 20 20 19 19 19 19 19 20 21 22 22 22 22 22 21 21 21 21 21 22 22 23 23 23 22 23 23 24 24 25 25
4 2 5 4 3 3 3 2 6 9 5 0 1 5 3 4 5 3 3 4 4 1 2 3 1 2 2 3 4 4 5 6 11 11 10 10 9 8 11 13 14 15 16 17 17 17 16 16 16 17 17 18 18 20 20 20 20 20 20 20 20 21 21 22 22 23 23 23 24 24 24 24 24 24 24 24 24 24 24 24 23 23 23 24 25 25
3 1 6 5 2 5 5 1 4 6 4 1 2 3 4 4 7 6 1 1 4 3 1 1 1 4 3 3 4 5 5 6 10 11 11 9 7 8 11 12 12 13 13 14 15 15 15 15 15 15 15 15 17 18 20 21 21 21 21 20 20 20 20 21 22 22 23 24 24 25 26 26 27 27 27 27 26 26 26 25 25 25 25 25 25 25
4 0 6 4 2 3 6 9 10 8 3 4 3 5 3 3 4 5 3 3 4 2 2 1 1 3 1 1 3 3 3 4 7 8 9 8 9 12 13 14 13 13 12 11 11 11 11 12 13 13 13 14 15 17 19 20 20 20 20 20 19 19 20 20 21 22 23 23 24 25 25 26 26 27 27 27 27 27 27 27 26 26 26 25 25 25
4 1 6 3 1 5 5 8 7 11 8 6 8 7 4 3 1 3 4 2 2 1 2 1 1 3 2 3 3 2 2 3 5 6 6 6 9 13 15 17 16 14 13 11 10 9 9 10 11 11 11 12 13 15 17 18 18 18 17 17 17 17 18 18 19 21 22 22 22 23 23 24 25 26 26 26 27 27 28 29 29 29 28 27 26 26
3 4 3 5 3 4 6 5 2 5 9 9 8 3 2 2 3 2 3 3 4 3 2 0 2 3 4 4 4 5 4 4 4 2 2 2 7 12 15 18 17 15 14 12 11 10 8 8 8 9 9 10 11 12 14 16 15 15 14 14 15 15 16 17 18 19 20 20 20 21 22 23 24 25 26 27 28 29 30 30 31 31 31 30 30 28
2 5 2 5 5 3 3 2 2 3 3 4 3 1 2 3 2 3 2 2 4 4 3 2 1 5 5 3 6 6 4 5 5 2 2 4 9 13 15 18 17 15 14 13 11 10 9 8 7 7 7 7 8 10 12 13 12 12 12 13 14 14 15 16 17 18 18 18 19 21 22 23 24 25 26 27 29 30 31 32 32 32 32 32 32 31
1 3 3 1 5 3 2 5 4 4 5 5 3 3 4 3 4 4 1 1 2 4 4 4 2 5 4 2 5 6 7 8 7 6 7 7 10 14 16 16 16 15 14 12 11 11 10 10 10 9 9 8 8 8 9 11 11 11 11 12 12 13 14 15 16 17 17 18 20 21 22 22 23 24 25 26 28 29 30 32 32 32 32 32 32 32
2 4 5 2 1 1 6 6 2 3 4 5 3 3 3 3 5 5 3 3 2 3 2 3 2 4 4 3 6 8 11 11 9 10 10 10 12 14 15 15 15 15 15 13 12 12 11 12 12 12 12 12 11 9 8 10 11 11 12 13 13 14 15 16 16 17 17 19 20 21 22 23 24 25 26 27 28 28 29 30 31 31 30 31 32 31
2 4 5 1 4 4 6 5 2 2 4 4 3 2 2 1 3 4 5 4 4 3 2 3 1 4 3 5 10 11 14 13 10 11 11 11 13 15 15 14 14 15 14 14 13 12 11 11 11 12 13 14 13 11 9 10 10 11 12 13 14 15 16 16 17 17 18 18 19 20 22 24 25 27 28 29 30 30 30 31 31 31 30 30 31 31
2 2 4 3 4 5 5 6 5 3 3 3 2 2 1 3 7 5 3 4 3 4 4 4 3 5 3 5 9 12 14 13 11 11 10 12 13 15 16 14 14 14 13 12 12 11 10 10 11 12 12 11 10 9 9 9 10 11 12 12 14 15 16 17 17 17 17 16 17 18 20 22 23 26 28 29 31 32 33 34 33 32 31 30 30 30
4 2 4 5 4 2 1 2 3 2 2 2 1 3 3 5 7 5 3 4 2 4 4 4 4 4 1 4 6 8 11 10 9 10 10 12 13 14 14 14 13 13 12 11 11 10 11 11 11 11 10 8 8 7 7 8 10 11 13 14 16 17 18 18 18 18 18 17 17 19 20 22 24 26 28 29 31 32 33 34 33 32 30 30 30 30
4 3 2 6 6 6 6 6 5 3 3 1 1 3 3 3 3 5 5 2 4 4 2 4 5 5 5 5 5 6 7 8 10 11 11 13 14 13 14 13 12 12 12 11 10 10 10 10 10 9 8 8 8 8 8 10 11 13 15 16 17 18 18 18 18 19 19 20 21 22 23 25 26 28 29 30 31 32 32 32 31 30 29 29 30 29
5 3 2 5 3 2 5 4 2 3 4 2 2 1 2 4 4 5 4 4 6 7 2 6 6 9 9 8 8 8 7 9 12 14 15 16 15 14 14 13 13 12 11 10 9 9 8 8 8 8 8 8 9 9 10 12 14 15 17 18 19 20 20 20 20 21 23 24 24 24 25 26 27 29 30 31 32 32 31 31 30 29 28 28 28 27
6 3 1 4 5 4 2 3 2 5 4 3 3 2 2 4 4 4 3 2 5 5 5 7 11 10 9 8 8 10 13 14 15 17 18 18 17 16 16 15 13 12 10 8 8 7 7 7 7 8 8 9 10 11 13 15 16 18 19 20 21 22 22 21 22 23 24 25 25 25 26 27 28 29 31 32 33 33 33 32 30 28 28 28 27 24
5 2 1 4 5 7 8 7 4 5 5 4 5 4 3 5 5 5 3 3 4 2 2 9 11 6 3 6 8 12 17 18 18 19 18 18 18 18 17 15 13 12 10 8 8 7 6 7 7 8 9 10 11 13 15 17 19 20 21 21 21 21 21 21 22 23 24 25 26 27 28 29 29 31 32 32 33 33 34 32 30 27 27 27 26 23
4 2 1 3 5 6 8 8 7 6 7 6 6 5 5 7 7 5 3 4 5 4 3 8 10 2 2 7 11 14 18 19 19 19 17 18 19 18 16 15 13 12 10 8 6 5 4 5 7 8 10 11 13 14 16 18 20 22 22 22 22 21 22 22 23 24 25 27 28 29 30 30 31 32 33 33 33 32 32 30 28 26 26 26 26 24
4 3 0 5 6 4 6 7 7 6 8 8 4 2 3 6 4 1 2 2 4 6 7 7 6 3 4 11 14 14 19 21 20 20 19 19 19 17 15 14 12 10 8 6 4 3 4 6 8 9 10 12 14 16 18 19 21 23 23 22 22 21 23 24 25 26 28 29 29 30 30 30 31 33 33 33 32 31 30 28 27 26 25 25 27 26
3 5 2 4 5 2 4 5 5 5 7 4 3 4 4 3 3 3 1 0 4 8 8 5 5 5 8 13 12 11 16 20 20 21 21 21 19 16 14 13 11 9 6 4 2 3 5 7 8 10 11 13 15 16 18 20 21 21 20 20 20 21 23 24 26 26 27 27 28 29 30 31 32 33 33 32 31 29 28 27 26 25 25 24 26 27
3 6 3 2 4 2 3 5 5 5 2 4 6 5 5 3 4 4 2 4 6 4 3 3 4 7 11 13 12 13 17 20 22 22 22 21 20 17 15 13 11 8 5 2 2 4 6 7 8 10 11 13 15 16 17 19 19 18 18 19 20 22 23 24 25 24 24 25 27 28 30 31 31 32 31 30 29 28 26 26 25 24 23 23 24 25
4 5 3 2 4 4 1 6 5 0 5 6 5 4 5 5 6 4 2 4 6 2 2 6 6 9 12 13 16 20 21 20 20 19 20 19 18 17 15 13 10 7 4 2 3 5 6 8 9 10 12 13 14 15 17 18 18 18 19 21 21 22 23 24 25 24 25 27 28 29 30 31 31 31 30 29 28 27 26 25 25 24 24 23 22 23
6 5 3 3 3 3 2 3 3 4 7 4 6 3 4 6 7 7 4 3 5 3 4 7 7 10 14 15 17 20 21 20 19 17 19 18 16 14 13 11 9 6 3 3 5 7 8 10 11 12 12 13 14 15 16 17 17 19 21 21 21 21 22 25 26 25 26 28 29 29 30 30 31 30 30 29 28 27 27 26 25 25 25 24 22 21
9 5 4 3 1 3 3 2 1 4 4 3 3 3 6 5 5 6 2 6 8 7 8 9 8 12 17 18 20 22 22 20 14 12 16 18 15 13 10 9 7 4 2 4 6 8 10 10 11 11 12 13 14 14 15 15 17 19 21 21 21 21 23 25 25 26 28 29 29 29 29 30 30 30 30 30 29 29 28 27 26 26 26 26 24 22
7 4 5 5 1 3 4 2 2 3 3 6 7 7 6 5 6 6 4 3 7 11 17 16 14 16 20 20 22 24 22 14 5 8 17 18 15 13 11 8 6 3 1 3 6 8 9 10 9 10 12 13 13 12 13 15 17 19 21 21 21 22 23 24 25 28 29 29 28 29 29 29 30 30 30 30 30 29 29 28 28 27 27 26 26 24
8 4 5 6 2 2 5 3 2 3 4 7 8 7 5 9 8 5 4 3 7 17 24 22 21 23 25 28 29 25 16 5 3 11 20 20 16 14 11 8 6 3 0 2 5 7 8 8 8 10 12 11 11 11 13 15 17 19 20 21 22 23 23 24 27 28 28 28 27 28 29 29 29 29 30 30 30 29 29 29 28 27 26 26 25 23
7 5 4 5 4 3 4 3 3 4 3 4 5 5 8 12 9 7 3 6 10 24 30 27 28 29 30 33 31 22 13 8 11 19 24 21 17 14 10 7 6 3 1 1 4 6 6 5 7 10 11 10 10 11 13 16 18 19 20 21 22 22 23 25 27 28 27 27 27 27 28 28 29 29 29 29 29 28 28 27 27 27 26 25 23 22
4 4 3 4 4 3 4 2 2 4 4 4 4 9 14 13 8 4 3 7 15 30 34 33 35 34 35 36 31 23 19 16 18 25 28 21 17 16 11 9 7 4 1 2 4 4 4 6 9 11 10 9 9 12 14 16 17 18 19 21 21 22 24 26 26 26 26 27 27 27 28 28 28 28 28 28 28 28 27 26 26 26 26 25 23 22
2 2 2 3 4 3 3 2 1 4 4 5 9 13 16 11 3 5 6 6 19 33 35 34 37 37 39 40 34 26 20 13 16 27 28 22 18 16 13 10 7 4 1 2 3 3 4 7 10 10 9 9 10 12 14 15 16 18 20 21 22 23 24 25 25 26 27 27 28 28 28 28 28 28 28 28 27 27 27 26 25 25 24 24 23 22
4 3 2 2 4 3 2 3 2 4 5 15 17 9 7 6 4 7 7 7 21 34 34 35 37 37 39 37 28 21 16 13 20 28 26 21 18 15 12 10 6 3 3 2 2 3 5 8 10 10 10 10 11 13 13 14 16 19 20 21 22 23 24 24 25 25 26 27 28 29 30 29 29 28 27 27 26 26 26 26 25 25 24 24 23 23
3 4 3 3 3 4 2 3 4 3 10 27 22 6 13 14 4 4 9 10 20 32 34 35 36 36 38 37 28 20 17 19 25 27 24 21 18 14 12 9 5 4 3 2 2 3 5 8 10 10 10 10 11 12 13 16 18 20 20 21 23 23 23 24 24 25 26 27 29 30 30 29 29 28 27 26 25 25 25 26 26 26 25 24 23 23
4 4 5 3 4 4 3 6 5 4 11 30 19 3 15 21 6 3 8 10 18 30 34 36 37 36 36 36 30 23 21 23 26 26 23 21 18 14 12 9 6 5 4 3 2 3 6 9 10 10 9 10 11 12 14 17 19 20 21 21 22 22 23 23 23 24 26 28 29 29 29 29 28 27 26 25 25 25 25 25 25 26 26 25 25 26
2 4 4 3 2 2 2 4 4 3 11 26 17 2 11 19 10 5 7 9 17 28 32 35 37 37 36 35 30 25 24 26 26 24 22 20 17 14 12 9 7 6 5 3 2 4 6 8 9 9 9 10 12 13 15 18 19 20 20 21 21 21 22 22 23 24 26 28 29 29 29 28 28 27 26 25 24 24 24 24 24 24 25 25 26 27
1 4 3 3 3 3 2 3 3 3 10 21 18 8 10 16 13 9 8 9 15 25 31 33 35 36 36 35 31 27 26 26 26 25 23 20 17 15 12 10 9 8 6 4 3 4 6 8 8 8 9 11 11 13 16 18 19 19 19 19 20 20 22 22 23 25 26 27 28 28 29 28 27 27 28 27 26 25 23 22 22 22 23 24 25 26
4 6 3 2 3 4 4 5 2 3 9 18 18 13 11 14 14 13 13 13 15 22 29 30 32 34 35 33 30 27 27 26 25 24 23 20 17 15 12 10 10 9 6 4 3 4 6 8 8 7 9 10 11 14 16 17 17 18 18 19 20 21 22 23 23 24 26 27 28 29 29 29 27 26 27 29 29 27 25 23 22 21 20 21 22 24
9 9 5 3 4 1 4 4 2 2 4 14 19 17 14 14 15 16 17 17 19 24 28 29 30 32 33 32 29 26 25 26 25 23 22 20 17 14 12 11 11 9 6 4 3 4 6 7 6 6 8 10 12 14 15 16 16 17 17 19 20 21 22 23 23 24 25 26 27 29 29 30 28 26 26 27 28 27 25 24 23 21 19 18 17 19
9 6 3 5 4 2 5 11 15 7 3 16 25 22 17 16 16 18 21 21 22 25 27 29 31 31 30 29 27 24 23 26 25 22 20 18 15 13 13 13 12 10 6 4 3 4 5 5 5 6 7 10 11 13 15 15 15 16 17 18 20 22 23 23 24 25 25 26 27 28 29 29 28 26 25 26 27 28 25 23 22 21 20 18 17 17
12 11 12 9 6 7 11 23 28 13 5 18 30 26 21 19 18 20 22 23 24 25 26 28 31 31 29 27 24 21 20 23 24 22 18 16 14 13 12 12 10 8 6 4 3 3 3 4 4 5 7 9 10 12 15 15 14 14 16 18 20 22 23 24 24 25 25 26 26 27 28 29 28 27 25 25 26 28 27 25 23 22 20 19 18 17
Wind_Direction
65 89 144 178 189 202 192 157 146 133 118 117 106 104 117 111 90 67 93 62 80 79 20 35 64 33 13 349 354 12 25 31 28 32 40 44 48 51 58 61 54 51 57 64 62 58 57 72 91 106 120 103 82 73 56 45 34 27 22 22 29 38 34 11 356 354 359 7 9 7 9 8 3 2 3 3 2 2 4 5 6 8 9 8 9 10
65 72 244 212 180 177 160 136 117 107 107 104 104 109 102 109 109 46 90 25 33 81 7 20 58 21 359 349 2 21 27 21 18 23 28 32 42 47 51 56 53 46 45 56 61 57 54 57 73 98 125 113 94 80 64 39 23 16 10 10 14 11 355 345 345 350 355 354 354 356 358 357 354 352 353 355 354 352 354 359 360 0 2 3 3 4
34 261 253 198 136 117 114 117 105 100 106 105 111 115 104 127 116 35 29 6 29 86 4 31 66 23 347 350 21 28 27 24 26 29 25 25 33 36 40 46 52 56 48 51 56 56 55 50 60 85 115 112 96 83 71 40 18 6 359 2 356 338 332 336 341 345 348 345 344 346 345 344 343 342 343 346 346 342 343 349 352 353 355 357 358 358
12 266 257 162 135 114 100 107 104 94 88 108 126 122 136 177 125 70 333 3 25 90 138 93 73 26 356 357 22 29 37 47 36 31 29 27 28 28 31 36 41 51 52 52 51 51 54 52 57 76 94 95 82 78 63 37 18 1 353 353 349 339 333 333 335 338 339 338 338 339 339 338 336 335 334 336 336 334 334 337 341 342 343 346 347 348
236 272 250 129 134 121 118 119 116 110 81 106 151 139 152 167 113 114 164 73 29 46 90 76 49 8 358 3 358 9 30 42 33 30 32 27 27 30 36 38 36 39 42 44 46 45 46 48 51 57 66 68 54 48 36 21 9 359 352 346 342 340 338 337 335 336 336 335 335 336 337 334 331 328 326 325 324 324 325 326 328 329 331 334 336 338
262 276 116 119 122 119 124 143 152 136 117 136 234 170 150 141 116 111 120 86 45 16 355 64 65 348 333 5 355 343 13 26 23 25 24 20 23 26 32 36 36 36 35 35 35 36 36 39 43 44 47 44 26 13 7 359 353 351 347 341 338 337 338 339 338 338 337 335 335 335 336 335 331 326 322 320 319 318 319 319 319 321 325 329 331 333
266 331 87 115 116 108 102 119 193 147 123 161 222 154 129 122 119 117 114 86 82 213 299 63 103 11 327 359 341 331 10 16 16 17 12 13 16 16 20 25 30 33 34 35 33 32 33 34 37 37 35 32 24 17 8 1 357 354 349 344 340 336 336 337 337 337 334 332 332 331 332 332 330 325 319 316 314 314 314 312 312 313 316 320 322 325
144 34 49 81 86 94 100 126 217 147 123 180 199 135 122 117 118 111 100 91 144 194 359 29 92 101 349 334 315 333 26 18 10 8 4 9 11 14 21 22 28 32 31 33 33 33 33 33 34 32 28 24 22 21 15 10 6 0 357 353 346 340 334 332 331 330 328 326 326 325 325 324 324 320 317 313 311 311 310 308 307 307 307 310 312 314
160 67 103 108 82 104 167 186 175 130 108 222 126 107 108 106 105 97 93 87 32 80 33 348 40 81 321 307 320 358 40 14 356 349 353 5 8 13 24 29 34 36 34 34 33 33 32 31 31 31 30 24 19 18 14 10 6 1 358 356 351 341 330 324 322 322 322 322 321 321 319 319 318 317 316 314 312 310 308 305 303 302 301 301 304 307
289 148 162 125 98 155 205 162 158 122 101 149 108 87 78 79 75 75 89 89 35 58 47 308 4 93 299 309 335 8 34 354 335 324 337 3 11 13 25 37 42 42 43 42 39 38 35 34 34 32 33 30 25 21 18 13 7 3 357 354 351 335 322 322 324 323 323 320 319 318 316 316 316 315 314 312 310 308 305 303 302 301 300 298 298 300
301 288 170 87 77 129 91 72 102 117 125 123 99 83 74 56 44 51 57 76 60 21 283 284 316 114 127 305 299 327 328 301 308 317 338 0 12 16 28 42 47 46 48 47 46 46 43 42 42 39 36 34 31 26 23 19 12 9 2 358 354 328 320 330 331 326 325 322 320 318 316 315 314 313 312 309 307 305 303 301 300 300 299 298 296 295
343 20 10 47 81 100 91 67 51 104 123 113 93 105 94 29 12 34 357 33 72 325 271 282 324 92 101 276 264 281 307 295 271 292 340 355 3 14 31 45 49 48 50 51 51 51 50 51 49 48 46 41 38 31 26 22 17 16 9 3 356 331 329 340 337 331 331 328 325 322 320 318 317 315 314 311 309 307 305 302 299 297 296 295 293 291
358 347 312 10 100 103 93 83 52 39 89 101 105 113 99 44 20 42 330 2 83 237 259 283 353 70 126 244 265 296 321 307 284 328 7 1 4 18 33 50 55 55 57 55 54 53 53 55 55 54 52 46 43 40 37 35 31 28 22 15 8 354 352 356 352 348 347 342 339 336 332 330 328 325 323 320 316 313 311 307 303 299 297 295 293 289
351 316 335 21 94 106 102 119 122 11 126 130 137 129 123 116 94 218 255 353 287 237 261 298 30 59 299 277 257 277 302 314 360 35 27 13 18 30 44 65 70 67 66 62 60 61 60 61 60 57 56 54 53 51 48 46 42 38 34 29 23 16 13 13 11 9 6 3 359 353 348 344 341 338 337 335 331 326 321 315 310 306 303 300 298 293
105 315 331 357 292 6 85 147 152 151 136 139 148 127 143 156 143 191 198 163 198 219 293 329 37 115 257 267 248 282 327 15 50 47 39 37 43 52 68 78 77 73 72 69 67 67 67 66 64 62 61 59 56 52 48 46 43 40 36 32 28 25 21 19 19 18 17 16 13 10 7 3 358 353 349 347 345 341 335 327 320 314 309 306 304 301
115 227 274 280 275 38 43 209 137 117 107 335 118 103 145 182 138 136 169 158 155 128 342 351 23 226 227 258 280 347 19 52 61 50 41 43 46 64 76 75 73 74 74 73 71 70 69 68 65 64 62 58 53 48 44 41 38 37 35 32 30 27 24 22 21 20 20 20 19 18 18 16 13 9 4 360 355 351 347 341 335 327 321 316 312 308
88 285 294 321 358 57 48 43 105 113 144 128 95 154 200 165 119 114 130 33 81 99 330 350 291 298 326 302 312 16 26 38 53 43 29 31 44 68 72 70 70 72 73 72 70 69 68 65 63 61 58 53 49 44 41 37 34 33 33 32 30 28 27 24 22 21 21 20 19 18 17 16 15 13 11 8 3 359 354 350 344 339 333 328 323 318
123 207 299 351 66 27 55 85 67 47 106 135 165 192 173 107 95 102 103 17 47 98 282 329 216 273 353 301 303 12 32 39 44 28 20 36 70 80 80 81 79 77 76 74 73 71 68 64 61 58 53 49 46 42 40 36 33 32 33 32 30 28 27 26 24 24 22 19 18 15 14 13 12 11 10 8 5 2 358 356 352 347 343 338 333 326
108 84 295 310 212 301 12 89 63 17 34 103 146 151 120 123 139 67 101 133 110 135 280 333 266 243 201 214 249 223 162 95 51 19 15 46 80 87 87 88 87 83 80 77 76 73 68 65 59 52 48 44 42 40 38 35 31 32 35 34 32 30 28 27 25 24 21 18 15 13 11 9 7 7 6 4 3 1 359 358 356 353 350 347 343 336
98 101 277 291 281 311 8 54 82 15 37 69 97 87 35 125 149 119 123 149 138 146 199 30 355 264 228 209 184 186 187 124 86 19 350 69 95 94 91 89 87 83 79 75 72 68 63 60 51 39 33 28 31 36 35 35 35 36 37 35 32 30 26 24 23 20 17 13 9 6 5 4 2 1 360 360 360 359 359 357 355 353 352 350 348 345
53 93 174 295 329 10 18 4 185 168 114 85 78 22 28 70 125 134 93 89 124 137 161 143 281 265 251 201 164 168 166 135 130 153 169 130 109 98 93 92 89 85 80 74 69 65 58 53 42 29 25 20 23 34 38 38 38 36 33 29 27 24 22 21 18 14 10 6 3 2 3 3 2 1 360 359 359 359 359 357 354 351 349 348 348 347
58 100 129 325 1 38 258 257 220 190 176 156 154 166 142 122 128 119 75 318 110 120 158 153 193 265 264 179 154 147 143 145 153 166 160 134 112 103 98 95 92 88 85 79 73 68 61 59 55 48 45 38 32 35 34 28 24 23 24 24 20 16 15 16 12 7 4 360 359 1 2 1 1 1 1 1 1 1 0 358 355 351 348 348 348 349
136 101 90 57 341 222 260 268 219 177 158 132 118 133 134 120 115 124 176 208 103 90 130 112 122 269 268 146 124 128 140 147 160 170 157 132 115 109 105 100 96 93 89 84 79 74 69 64 59 53 48 44 41 42 35 21 16 14 13 11 7 4 4 3 1 357 352 350 350 352 353 353 356 359 360 1 2 2 1 359 356 352 350 349 349 349
105 80 81 17 312 303 302 320 17 94 93 79 38 54 109 147 124 137 169 157 125 148 137 76 97 269 278 115 109 118 133 138 157 169 151 133 124 114 110 107 102 97 91 86 79 72 66 56 46 40 36 33 32 31 27 19 12 6 2 359 358 358 356 353 350 346 340 338 338 338 339 342 344 348 352 356 359 359 358 356 354 352 350 349 350 349
137 83 95 76 6 349 341 347 348 354 47 69 359 358 32 103 104 109 113 82 103 180 157 123 191 260 273 111 104 114 124 130 155 165 147 136 128 118 116 114 107 102 95 88 80 68 61 53 46 41 35 30 25 21 18 16 13 10 8 5 3 1 358 355 353 349 343 339 337 337 339 340 339 342 344 347 350 351 351 351 351 350 348 346 348 349
131 130 112 115 124 159 205 270 265 277 22 39 23 18 38 91 110 124 108 82 139 184 154 146 190 247 230 118 105 117 122 128 152 158 149 143 132 123 123 120 114 108 99 91 85 78 73 69 64 59 53 47 40 30 23 17 14 12 10 7 4 1 357 356 355 351 348 347 346 345 347 347 347 347 348 348 349 348 347 348 348 349 347 343 345 348
102 83 95 131 152 180 190 219 227 157 99 68 51 40 37 50 84 106 107 145 179 151 171 220 182 160 166 154 142 143 136 143 159 163 162 155 140 131 130 126 118 110 103 99 92 85 80 72 65 60 53 47 38 27 18 9 5 3 0 359 359 356 353 353 351 348 346 345 345 345 346 348 349 349 350 350 350 348 348 349 350 349 347 343 343 346
94 62 71 109 98 205 197 225 254 100 108 135 116 59 19 18 39 94 129 197 156 126 223 242 172 158 174 173 164 162 155 158 167 169 164 155 144 138 136 131 124 117 110 105 95 85 75 62 54 43 31 25 22 15 9 5 3 2 360 358 357 354 351 350 347 344 344 343 343 345 347 347 346 346 347 347 346 346 347 350 352 350 349 347 344 345
105 77 174 112 52 14 22 355 21 94 100 78 62 30 18 34 57 116 146 176 132 145 220 194 166 170 178 173 173 172 166 166 167 165 159 152 146 144 141 135 128 122 116 107 93 79 64 51 40 28 19 13 10 6 3 1 359 358 356 354 352 349 347 347 345 343 341 341 343 346 347 345 343 343 343 343 343 344 347 349 351 350 350 351 348 347
101 71 246 117 68 24 15 4 18 88 98 51 27 24 63 76 83 102 107 71 71 74 196 154 150 163 178 176 178 169 165 163 159 157 155 150 147 146 142 136 128 123 117 108 94 74 56 41 27 18 11 5 3 2 360 359 356 353 350 348 347 347 348 348 346 345 344 344 346 347 344 342 342 342 342 343 343 345 347 349 352 351 351 352 351 350
82 107 277 90 71 8 2 16 24 61 97 78 29 24 75 88 76 68 97 103 78 60 67 113 125 131 226 168 156 154 157 153 150 153 152 150 150 149 143 135 129 125 119 108 95 73 42 17 1 356 356 357 357 355 353 352 350 346 344 344 346 347 347 346 345 346 346 346 345 343 341 341 343 344 344 345 345 345 348 351 353 354 353 354 353 353
73 112 357 70 75 340 345 27 21 36 77 70 27 17 106 101 97 119 163 149 128 122 107 107 135 191 187 148 138 143 151 150 151 155 152 151 154 153 148 140 133 130 122 108 92 46 5 349 346 347 350 350 346 346 346 344 342 340 340 343 343 342 341 340 342 343 343 343 342 340 342 344 346 347 347 347 347 347 349 351 352 355 357 357 357 356
104 123 121 89 93 292 324 24 17 32 58 29 288 203 157 112 124 156 224 243 146 141 136 153 183 170 146 140 134 140 152 155 159 161 158 157 157 156 154 147 140 138 129 108 58 8 355 350 350 348 347 344 342 344 344 342 342 342 344 344 341 338 338 338 341 341 340 342 343 343 346 347 347 348 348 348 349 349 350 351 353 356 359 359 357 357
95 106 121 114 111 179 294 5 28 44 73 246 248 204 185 174 146 160 203 170 159 163 162 150 136 134 142 150 153 156 162 164 165 166 165 164 162 159 156 151 146 145 136 104 19 9 359 352 349 345 342 342 343 346 345 343 346 348 346 343 339 337 339 340 342 343 344 348 350 349 349 348 348 349 349 349 351 351 351 352 354 355 358 359 357 357
95 94 119 78 100 148 322 25 57 184 234 246 283 253 195 163 129 108 57 160 166 183 147 123 122 140 147 154 159 159 160 162 163 164 163 164 167 167 162 155 150 147 137 97 25 12 359 346 342 340 340 343 344 344 342 343 348 348 344 341 340 339 341 344 344 345 349 354 355 353 352 351 350 350 349 349 350 350 350 352 353 354 355 358 358 356
125 117 120 58 83 139 76 69 140 242 258 283 330 314 153 120 107 91 38 268 220 209 158 138 133 137 136 141 150 152 154 155 152 155 160 162 168 171 168 158 148 140 115 62 22 5 357 347 343 342 343 345 343 340 341 346 348 346 342 340 340 341 345 345 342 345 353 357 356 355 353 352 351 350 348 347 347 347 348 349 351 352 352 354 355 352
127 131 117 70 84 140 121 150 232 320 310 294 304 231 170 151 150 133 126 239 230 208 169 147 130 132 133 138 145 146 146 141 133 147 160 160 163 166 163 155 141 121 61 28 5 357 355 347 343 344 342 341 338 337 344 350 346 342 341 339 340 342 344 342 344 351 357 358 356 354 353 351 350 349 347 346 345 345 345 346 347 348 349 350 351 349
101 133 147 130 124 115 101 80 3 14 300 251 240 228 200 168 161 133 111 225 230 196 173 158 145 141 138 138 142 143 141 133 129 173 166 160 163 165 159 154 143 117 32 3 354 350 348 341 338 342 340 337 338 343 349 348 342 340 340 340 342 343 341 343 351 356 357 356 355 353 352 350 349 348 347 346 345 345 343 343 343 345 346 346 347 347
58 61 109 110 106 122 114 119 174 187 246 247 229 223 182 155 151 104 58 290 224 183 174 164 154 152 151 151 151 148 143 140 220 190 172 164 167 169 167 165 156 147 174 348 347 343 343 340 336 337 337 336 342 349 349 344 340 340 340 342 344 343 344 351 357 358 356 356 355 352 350 349 348 348 347 346 346 345 344 343 343 343 345 346 346 347
56 38 58 102 133 154 131 139 210 216 252 261 230 202 159 148 130 83 26 278 206 176 175 171 163 163 162 158 156 158 167 193 205 186 173 168 169 171 172 169 160 159 175 348 346 344 345 336 329 335 339 342 347 349 345 340 339 341 344 347 346 346 352 358 358 356 356 355 354 352 350 349 348 347 347 346 345 345 345 344 344 344 346 349 349 349
56 32 57 124 139 138 136 147 263 250 243 244 207 166 148 134 107 97 226 237 182 172 177 177 170 169 168 164 166 177 190 203 200 181 170 169 171 170 167 164 160 162 175 337 342 347 339 327 334 343 344 344 346 344 341 340 342 347 350 350 349 352 358 358 356 355 355 353 353 352 351 350 348 347 347 345 344 345 345 345 346 346 348 351 352 351
120 70 79 122 122 129 141 130 290 269 245 177 147 147 145 135 142 214 221 206 178 175 178 179 175 174 174 174 178 185 191 198 188 174 169 171 174 171 169 168 167 177 257 317 330 333 326 332 344 348 342 341 342 340 341 345 349 353 353 351 353 357 359 356 354 354 354 353 354 353 352 352 350 348 347 346 344 344 345 346 348 348 349 351 352 353
168 146 150 170 149 129 55 62 117 273 220 154 134 130 165 172 203 201 182 175 182 180 177 179 180 178 178 179 181 184 185 177 172 171 169 170 173 172 170 171 178 215 261 292 307 315 326 335 343 345 342 341 340 339 347 353 356 357 355 355 359 1 358 355 354 354 355 356 356 356 355 354 352 349 348 348 348 347 347 349 351 352 354 354 353 354
184 156 169 224 183 136 102 171 191 273 188 164 153 166 202 190 168 165 170 167 178 180 179 180 182 183 183 183 182 181 179 171 169 171 170 170 175 174 171 177 200 229 244 264 279 309 328 335 341 344 340 339 342 347 355 358 358 358 357 359 1 360 357 356 356 356 358 360 359 359 359 357 356 354 353 353 354 353 353 354 355 357 359 360 358 358
215 182 167 187 187 164 178 210 237 314 183 176 174 203 195 189 176 132 175 179 179 183 184 182 183 185 186 186 184 180 177 174 172 173 174 174 175 176 179 189 206 219 233 249 267 311 330 336 340 340 337 342 350 354 357 358 357 358 0 2 1 358 357 358 359 360 2 2 2 2 2 2 0 359 360 1 1 0 1 2 1 1 3 4 6 6
211 164 138 123 190 222 252 231 246 292 194 188 192 207 185 193 200 176 178 191 188 188 189 188 188 188 188 189 187 180 178 177 174 174 177 178 177 182 188 194 201 212 224 229 261 313 330 337 337 334 341 351 354 355 356 357 358 0 3 4 1 360 1 2 3 3 3 3 4 4 4 5 4 3 5 8 7 7 8 8 10 11 10 12 14 13
194 153 120 90 131 169 237 252 235 224 200 196 201 207 186 191 204 201 192 195 192 191 192 193 193 191 189 191 191 184 178 178 176 176 180 182 183 185 189 194 201 205 206 217 268 314 332 336 332 332 346 354 355 355 357 359 0 3 5 4 4 6 7 6 6 5 4 3 4 4 5 6 5 4 7 10 13 14 14 14 17 20 18 18 19 15
180 161 139 93 132 169 235 266 255 197 202 199 201 207 194 188 197 200 194 192 190 190 192 193 193 192 189 189 191 186 178 178 181 182 181 183 185 185 187 197 204 200 198 217 268 321 334 330 326 335 350 355 357 358 360 2 4 6 7 8 11 11 10 10 9 7 5 4 4 5 7 8 7 6 7 10 16 20 22 22 23 26 26 23 19 16
144 156 162 118 113 149 275 253 173 104 224 209 204 205 199 193 196 193 190 189 188 188 189 189 190 193 192 190 190 188 181 180 184 186 183 183 184 184 187 195 199 199 203 221 276 324 326 319 322 341 354 357 359 1 3 5 7 9 11 13 14 14 12 12 11 9 7 5 4 6 8 9 9 10 10 10 14 21 29 31 27 25 26 24 20 16
134 155 153 99 112 219 238 189 169 149 217 210 204 201 197 195 196 192 187 186 186 187 189 186 184 188 191 189 189 190 185 181 183 186 186 186 186 187 192 197 197 197 206 228 282 316 316 312 325 347 356 357 358 2 6 8 9 11 15 15 15 14 13 11 11 11 9 6 5 6 8 9 11 14 16 15 13 16 25 35 36 31 26 20 17 13
177 176 170 161 180 223 213 187 177 170 198 202 198 196 193 194 197 194 189 186 185 187 189 187 183 182 183 184 187 190 188 183 183 186 187 186 186 189 195 200 200 200 213 239 281 317 316 314 330 348 353 353 356 3 7 10 10 11 14 15 14 13 11 9 9 9 8 6 6 7 9 11 13 16 19 20 17 15 18 26 34 37 33 23 15 10